Time,TemperatureF,DewpointF,PressureIn,WindDirection,WindDirectionDegrees,WindSpeedMPH,WindSpeedGustMPH,Humidity,HourlyPrecipIn,Conditions,Clouds,dailyrainin,SoftwareType,DateUTC
2013-08-10 00:02:00,64.4,57.7,30.04,NW,315,0.0,0.0,79,0.00,,,0.00,meteohub,2013-08-10 05:02:00,
2013-08-10 00:07:00,64.2,57.6,30.05,NW,315,0.0,0.0,79,0.00,,,0.00,meteohub,2013-08-10 05:07:00,
2013-08-10 00:12:00,64.2,57.6,30.05,NW,315,0.0,0.0,79,0.00,,,0.00,meteohub,2013-08-10 05:12:00,
2013-08-10 00:17:00,64.0,57.4,30.05,NW,315,0.0,0.0,79,0.00,,,0.00,meteohub,2013-08-10 05:17:00,
2013-08-10 00:22:00,63.7,57.4,30.05,NW,315,0.0,0.0,80,0.00,,,0.00,meteohub,2013-08-10 05:22:00,
2013-08-10 00:27:00,63.5,57.2,30.05,NW,315,0.0,0.0,80,0.00,,,0.00,meteohub,2013-08-10 05:27:00,
2013-08-10 00:32:00,63.1,57.2,30.05,NW,315,0.0,0.0,81,0.00,,,0.00,meteohub,2013-08-10 05:32:00,
2013-08-10 00:42:00,62.6,57.0,30.05,NW,315,0.0,0.0,82,0.00,,,0.00,meteohub,2013-08-10 05:42:00,
2013-08-10 00:47:00,62.4,57.2,30.05,NW,315,0.0,0.0,83,0.00,,,0.00,meteohub,2013-08-10 05:47:00,
2013-08-10 00:52:00,62.2,57.4,30.05,NW,315,0.0,0.0,84,0.00,,,0.00,meteohub,2013-08-10 05:52:00,
2013-08-10 00:57:00,62.2,57.4,30.05,NW,315,0.0,0.0,84,0.00,,,0.00,meteohub,2013-08-10 05:57:00,
2013-08-10 01:02:00,62.1,57.2,30.06,NW,315,0.0,0.0,84,0.00,,,0.00,meteohub,2013-08-10 06:02:00,
2013-08-10 01:07:00,62.1,57.6,30.05,NW,315,0.0,0.0,85,0.00,,,0.00,meteohub,2013-08-10 06:07:00,
2013-08-10 01:12:00,61.9,57.4,30.05,NW,315,0.0,0.0,85,0.00,,,0.00,meteohub,2013-08-10 06:12:00,
2013-08-10 01:17:00,61.7,57.2,30.06,NW,315,0.0,0.0,85,0.00,,,0.00,meteohub,2013-08-10 06:17:00,
2013-08-10 01:22:00,61.5,57.0,30.06,NW,315,0.0,0.0,85,0.00,,,0.00,meteohub,2013-08-10 06:22:00,
2013-08-10 01:27:00,61.2,57.0,30.06,NW,315,0.0,0.0,86,0.00,,,0.00,meteohub,2013-08-10 06:27:00,
2013-08-10 01:32:00,60.8,56.8,30.06,NW,315,0.0,0.0,87,0.00,,,0.00,meteohub,2013-08-10 06:32:00,
2013-08-10 01:37:00,60.4,57.2,30.06,NW,315,0.0,0.0,89,0.00,,,0.00,meteohub,2013-08-10 06:37:00,
2013-08-10 01:42:00,60.1,57.2,30.06,NW,315,0.0,0.0,90,0.00,,,0.00,meteohub,2013-08-10 06:42:00,
2013-08-10 01:47:00,59.9,57.0,30.06,NW,315,0.0,0.0,90,0.00,,,0.00,meteohub,2013-08-10 06:47:00,
2013-08-10 01:52:00,59.5,56.7,30.07,NW,315,0.0,0.0,90,0.00,,,0.00,meteohub,2013-08-10 06:52:00,
2013-08-10 01:57:00,59.4,56.7,30.07,NW,315,0.0,0.0,91,0.00,,,0.00,meteohub,2013-08-10 06:57:00,
2013-08-10 02:02:00,59.2,56.8,30.07,NW,315,0.0,0.0,92,0.00,,,0.00,meteohub,2013-08-10 07:02:00,
2013-08-10 02:07:00,59.0,56.7,30.07,NW,315,0.0,0.0,92,0.00,,,0.00,meteohub,2013-08-10 07:07:00,
2013-08-10 02:12:00,58.8,56.8,30.07,NW,315,0.0,0.0,93,0.00,,,0.00,meteohub,2013-08-10 07:12:00,
2013-08-10 02:17:00,58.6,56.7,30.07,NW,315,0.0,0.0,93,0.00,,,0.00,meteohub,2013-08-10 07:17:00,
2013-08-10 02:22:00,58.6,56.8,30.08,NW,315,0.0,0.0,94,0.00,,,0.00,meteohub,2013-08-10 07:22:00,
2013-08-10 02:27:00,58.5,56.7,30.07,NW,315,0.0,0.0,94,0.00,,,0.00,meteohub,2013-08-10 07:27:00,
2013-08-10 02:32:00,58.5,57.0,30.08,NW,315,0.0,0.0,95,0.00,,,0.00,meteohub,2013-08-10 07:32:00,
2013-08-10 02:37:00,58.3,56.8,30.08,NW,315,0.0,0.0,95,0.00,,,0.00,meteohub,2013-08-10 07:37:00,
2013-08-10 02:42:00,58.1,56.7,30.08,NW,315,0.0,0.0,95,0.00,,,0.00,meteohub,2013-08-10 07:42:00,
2013-08-10 02:47:00,57.9,56.8,30.08,NW,315,0.0,0.0,96,0.00,,,0.00,meteohub,2013-08-10 07:47:00,
2013-08-10 02:52:00,57.7,56.7,30.08,NW,315,0.0,0.0,96,0.00,,,0.00,meteohub,2013-08-10 07:52:00,
2013-08-10 02:57:00,57.6,56.5,30.08,NW,315,0.0,0.0,96,0.00,,,0.00,meteohub,2013-08-10 07:57:00,
2013-08-10 03:02:00,57.4,56.5,30.08,NW,315,0.0,0.0,97,0.00,,,0.00,meteohub,2013-08-10 08:02:00,
2013-08-10 03:07:00,57.4,56.5,30.08,NW,315,0.0,0.0,97,0.00,,,0.00,meteohub,2013-08-10 08:07:00,
2013-08-10 03:12:00,57.2,56.3,30.09,NW,315,0.0,0.0,97,0.00,,,0.00,meteohub,2013-08-10 08:12:00,
2013-08-10 03:17:00,57.0,56.5,30.09,NW,315,0.0,0.0,98,0.00,,,0.00,meteohub,2013-08-10 08:17:00,
2013-08-10 03:22:00,56.8,56.5,30.09,NW,315,0.0,0.0,99,0.00,,,0.00,meteohub,2013-08-10 08:22:00,
2013-08-10 03:27:00,56.8,56.5,30.09,NW,315,0.0,0.0,99,0.00,,,0.00,meteohub,2013-08-10 08:27:00,
2013-08-10 03:32:00,56.7,56.3,30.09,NW,315,0.0,0.0,99,0.00,,,0.00,meteohub,2013-08-10 08:32:00,
2013-08-10 03:37:00,56.7,56.3,30.09,NW,315,0.0,0.0,99,0.00,,,0.00,meteohub,2013-08-10 08:37:00,
2013-08-10 03:42:00,56.5,56.1,30.09,NW,315,0.0,0.0,99,0.00,,,0.00,meteohub,2013-08-10 08:42:00,
2013-08-10 03:47:00,56.3,55.9,30.09,NW,315,0.0,0.0,99,0.00,,,0.00,meteohub,2013-08-10 08:47:00,
2013-08-10 03:52:00,56.3,55.9,30.09,NW,315,0.0,0.0,99,0.00,,,0.00,meteohub,2013-08-10 08:52:00,
2013-08-10 03:57:00,56.1,55.8,30.09,NW,315,0.0,0.0,99,0.00,,,0.00,meteohub,2013-08-10 08:57:00,
2013-08-10 04:02:00,55.9,55.6,30.09,NW,315,0.0,0.0,99,0.00,,,0.00,meteohub,2013-08-10 09:02:00,
2013-08-10 04:07:00,55.9,55.6,30.09,NW,315,0.0,0.0,99,0.00,,,0.00,meteohub,2013-08-10 09:07:00,
2013-08-10 04:12:00,55.8,55.4,30.09,NW,315,0.0,0.0,99,0.00,,,0.00,meteohub,2013-08-10 09:12:00,
2013-08-10 04:17:00,55.6,55.2,30.09,NW,315,0.0,0.0,99,0.00,,,0.00,meteohub,2013-08-10 09:17:00,
2013-08-10 04:22:00,55.6,55.2,30.09,NW,315,0.0,0.0,99,0.00,,,0.00,meteohub,2013-08-10 09:22:00,
2013-08-10 04:27:00,55.4,55.0,30.10,NW,315,0.0,0.0,99,0.00,,,0.00,meteohub,2013-08-10 09:27:00,
2013-08-10 04:32:00,55.2,54.3,30.10,NW,315,0.0,0.0,97,0.00,,,0.00,meteohub,2013-08-10 09:32:00,
2013-08-10 04:37:00,55.2,54.3,30.10,NW,315,0.0,0.0,97,0.00,,,0.00,meteohub,2013-08-10 09:37:00,
2013-08-10 04:42:00,55.0,54.1,30.10,NW,315,0.0,0.0,97,0.00,,,0.00,meteohub,2013-08-10 09:42:00,
2013-08-10 04:47:00,54.9,54.0,30.10,NW,315,0.0,0.0,97,0.00,,,0.00,meteohub,2013-08-10 09:47:00,
2013-08-10 04:52:00,54.7,53.8,30.10,NW,315,0.0,0.0,97,0.00,,,0.00,meteohub,2013-08-10 09:52:00,
2013-08-10 04:57:00,54.5,53.6,30.10,NW,315,0.0,0.0,97,0.00,,,0.00,meteohub,2013-08-10 09:57:00,
2013-08-10 05:02:00,54.5,53.6,30.11,NW,315,0.0,0.0,97,0.00,,,0.00,meteohub,2013-08-10 10:02:00,
2013-08-10 05:07:00,54.5,53.6,30.11,NW,315,0.0,0.0,97,0.00,,,0.00,meteohub,2013-08-10 10:07:00,
2013-08-10 05:12:00,54.3,53.4,30.11,NW,315,0.0,0.0,97,0.00,,,0.00,meteohub,2013-08-10 10:12:00,
2013-08-10 05:17:00,54.3,53.4,30.11,NW,315,0.0,0.0,97,0.00,,,0.00,meteohub,2013-08-10 10:17:00,
2013-08-10 05:22:00,54.1,53.2,30.11,NW,315,0.0,0.0,97,0.00,,,0.00,meteohub,2013-08-10 10:22:00,
2013-08-10 05:27:00,54.1,53.2,30.11,NW,315,0.0,0.0,97,0.00,,,0.00,meteohub,2013-08-10 10:27:00,
2013-08-10 05:32:00,54.0,53.1,30.12,West,270,0.0,0.0,97,0.00,,,0.00,meteohub,2013-08-10 10:32:00,
2013-08-10 05:37:00,54.0,53.1,30.12,West,270,0.0,0.0,97,0.00,,,0.00,meteohub,2013-08-10 10:37:00,
2013-08-10 05:42:00,54.0,53.1,30.12,West,270,0.0,0.0,97,0.00,,,0.00,meteohub,2013-08-10 10:42:00,
2013-08-10 05:47:00,53.8,52.9,30.12,West,270,0.0,0.0,97,0.00,,,0.00,meteohub,2013-08-10 10:47:00,
2013-08-10 05:52:00,53.8,52.9,30.12,West,270,0.0,0.0,97,0.00,,,0.00,meteohub,2013-08-10 10:52:00,
2013-08-10 05:57:00,54.0,53.1,30.12,West,270,0.0,0.0,97,0.00,,,0.00,meteohub,2013-08-10 10:57:00,
2013-08-10 06:02:00,54.0,53.1,30.12,West,270,0.0,0.0,97,0.00,,,0.00,meteohub,2013-08-10 11:02:00,
2013-08-10 06:07:00,53.8,52.9,30.12,West,270,0.0,0.0,97,0.00,,,0.00,meteohub,2013-08-10 11:07:00,
2013-08-10 06:12:00,53.8,52.9,30.12,West,270,0.0,0.0,97,0.00,,,0.00,meteohub,2013-08-10 11:12:00,
2013-08-10 06:17:00,54.0,53.1,30.12,West,270,0.0,0.0,97,0.00,,,0.00,meteohub,2013-08-10 11:17:00,
2013-08-10 06:22:00,54.0,53.1,30.12,West,270,0.0,0.0,97,0.00,,,0.00,meteohub,2013-08-10 11:22:00,
2013-08-10 06:27:00,54.1,53.2,30.12,West,270,0.0,0.0,97,0.00,,,0.00,meteohub,2013-08-10 11:27:00,
2013-08-10 06:32:00,54.3,53.4,30.12,West,270,0.0,0.0,97,0.00,,,0.00,meteohub,2013-08-10 11:32:00,
2013-08-10 06:37:00,54.5,53.6,30.12,West,270,0.0,0.0,97,0.00,,,0.00,meteohub,2013-08-10 11:37:00,
2013-08-10 06:42:00,54.9,54.0,30.12,West,270,0.0,0.0,97,0.00,,,0.00,meteohub,2013-08-10 11:42:00,
2013-08-10 06:47:00,55.2,54.3,30.12,West,270,0.0,0.0,97,0.00,,,0.00,meteohub,2013-08-10 11:47:00,
2013-08-10 06:52:00,55.6,55.2,30.13,South,180,0.0,0.0,99,0.00,,,0.00,meteohub,2013-08-10 11:52:00,
2013-08-10 06:57:00,55.9,55.6,30.12,South,180,0.0,0.0,99,0.00,,,0.00,meteohub,2013-08-10 11:57:00,
2013-08-10 07:02:00,56.5,56.1,30.12,South,180,0.0,0.0,99,0.00,,,0.00,meteohub,2013-08-10 12:02:00,
2013-08-10 07:07:00,57.2,56.8,30.12,South,180,0.0,0.0,99,0.00,,,0.00,meteohub,2013-08-10 12:07:00,
2013-08-10 07:12:00,57.6,57.2,30.12,West,270,0.0,0.0,99,0.00,,,0.00,meteohub,2013-08-10 12:12:00,
2013-08-10 07:17:00,57.7,57.4,30.11,West,270,0.0,0.0,99,0.00,,,0.00,meteohub,2013-08-10 12:17:00,
2013-08-10 07:22:00,58.3,57.9,30.11,West,270,0.0,0.0,99,0.00,,,0.00,meteohub,2013-08-10 12:22:00,
2013-08-10 07:27:00,58.6,58.3,30.12,West,270,0.0,0.0,99,0.00,,,0.00,meteohub,2013-08-10 12:27:00,
2013-08-10 07:32:00,59.4,59.0,30.12,West,270,0.0,0.0,99,0.00,,,0.00,meteohub,2013-08-10 12:32:00,
2013-08-10 07:37:00,60.1,59.7,30.12,West,270,0.0,0.0,99,0.00,,,0.00,meteohub,2013-08-10 12:37:00,
2013-08-10 07:42:00,61.2,60.6,30.11,West,270,0.0,0.0,98,0.00,,,0.00,meteohub,2013-08-10 12:42:00,
2013-08-10 07:47:00,62.1,61.5,30.11,West,270,0.0,0.0,98,0.00,,,0.00,meteohub,2013-08-10 12:47:00,
2013-08-10 07:52:00,62.6,61.7,30.11,NW,315,0.0,0.0,97,0.00,,,0.00,meteohub,2013-08-10 12:52:00,
2013-08-10 07:57:00,63.5,62.6,30.11,SE,135,0.0,0.0,97,0.00,,,0.00,meteohub,2013-08-10 12:57:00,
2013-08-10 08:02:00,64.0,63.1,30.11,NW,315,0.0,0.0,97,0.00,,,0.00,meteohub,2013-08-10 13:02:00,
2013-08-10 08:07:00,65.3,64.8,30.11,NW,315,0.0,0.0,98,0.00,,,0.00,meteohub,2013-08-10 13:07:00,
2013-08-10 08:12:00,66.7,64.9,30.10,NE,45,0.0,0.0,94,0.00,,,0.00,meteohub,2013-08-10 13:12:00,
2013-08-10 08:17:00,67.6,64.2,30.10,NE,45,0.0,0.0,89,0.00,,,0.00,meteohub,2013-08-10 13:17:00,
2013-08-10 08:22:00,68.2,62.4,30.10,North,0,0.0,0.0,82,0.00,,,0.00,meteohub,2013-08-10 13:22:00,
2013-08-10 08:27:00,69.1,61.5,30.10,WNW,293,0.0,0.0,77,0.00,,,0.00,meteohub,2013-08-10 13:27:00,
2013-08-10 08:32:00,69.1,61.2,30.11,NE,45,0.0,0.0,76,0.00,,,0.00,meteohub,2013-08-10 13:32:00,
2013-08-10 08:37:00,69.3,61.0,30.10,NE,45,0.0,0.0,75,0.00,,,0.00,meteohub,2013-08-10 13:37:00,
2013-08-10 08:42:00,69.4,61.2,30.10,West,270,0.0,0.0,75,0.00,,,0.00,meteohub,2013-08-10 13:42:00,
2013-08-10 08:47:00,70.0,61.3,30.11,NW,315,0.0,0.0,74,0.00,,,0.00,meteohub,2013-08-10 13:47:00,
2013-08-10 08:52:00,70.7,61.2,30.10,NE,45,0.0,0.0,72,0.00,,,0.00,meteohub,2013-08-10 13:52:00,
2013-08-10 08:57:00,71.4,61.9,30.10,West,270,0.0,1.0,72,0.00,,,0.00,meteohub,2013-08-10 13:57:00,
2013-08-10 09:02:00,71.8,60.6,30.10,NE,45,0.0,1.0,68,0.00,,,0.00,meteohub,2013-08-10 14:02:00,
2013-08-10 09:07:00,72.3,60.8,30.10,NE,45,0.0,1.0,67,0.00,,,0.00,meteohub,2013-08-10 14:07:00,
2013-08-10 09:12:00,72.3,59.9,30.10,South,180,0.0,0.0,65,0.00,,,0.00,meteohub,2013-08-10 14:12:00,
2013-08-10 09:17:00,72.3,59.5,30.10,ENE,68,0.0,0.0,64,0.00,,,0.00,meteohub,2013-08-10 14:17:00,
2013-08-10 09:22:00,72.1,59.4,30.10,NE,45,0.0,0.0,64,0.00,,,0.00,meteohub,2013-08-10 14:22:00,
2013-08-10 09:27:00,71.8,58.5,30.10,East,90,0.0,0.0,63,0.00,,,0.00,meteohub,2013-08-10 14:27:00,
2013-08-10 09:32:00,72.0,58.6,30.10,NE,45,0.0,1.0,63,0.00,,,0.00,meteohub,2013-08-10 14:32:00,
2013-08-10 09:42:00,73.4,60.1,30.10,NW,315,0.0,1.0,63,0.00,,,0.00,meteohub,2013-08-10 14:42:00,
2013-08-10 09:47:00,73.8,59.9,30.10,SE,135,0.0,0.0,62,0.00,,,0.00,meteohub,2013-08-10 14:47:00,
2013-08-10 09:52:00,73.8,59.9,30.10,NW,315,0.0,0.0,62,0.00,,,0.00,meteohub,2013-08-10 14:52:00,
2013-08-10 09:57:00,73.9,58.6,30.10,East,90,1.0,0.0,59,0.00,,,0.00,meteohub,2013-08-10 14:57:00,
2013-08-10 10:02:00,73.8,58.1,30.11,East,90,0.0,1.0,58,0.00,,,0.00,meteohub,2013-08-10 15:02:00,
2013-08-10 10:07:00,73.9,58.3,30.11,SW,225,0.0,1.0,58,0.00,,,0.00,meteohub,2013-08-10 15:07:00,
2013-08-10 10:17:00,73.8,56.7,30.11,NE,45,0.0,1.0,55,0.00,,,0.00,meteohub,2013-08-10 15:17:00,
2013-08-10 10:22:00,74.3,56.1,30.11,NE,45,0.0,0.0,53,0.00,,,0.00,meteohub,2013-08-10 15:22:00,
2013-08-10 10:27:00,74.1,55.9,30.11,North,0,0.0,1.0,53,0.00,,,0.00,meteohub,2013-08-10 15:27:00,
2013-08-10 10:32:00,73.9,55.2,30.11,NW,315,0.0,1.0,52,0.00,,,0.00,meteohub,2013-08-10 15:32:00,
2013-08-10 10:37:00,74.1,55.9,30.11,SW,225,0.0,1.0,53,0.00,,,0.00,meteohub,2013-08-10 15:37:00,
2013-08-10 10:42:00,74.8,56.5,30.10,NW,315,0.0,0.0,53,0.00,,,0.00,meteohub,2013-08-10 15:42:00,
2013-08-10 10:47:00,75.6,56.1,30.10,East,90,0.0,0.0,51,0.00,,,0.00,meteohub,2013-08-10 15:47:00,
2013-08-10 10:52:00,75.9,55.9,30.11,NW,315,0.0,0.0,50,0.00,,,0.00,meteohub,2013-08-10 15:52:00,
2013-08-10 10:57:00,74.7,54.9,30.11,West,270,0.0,0.0,50,0.00,,,0.00,meteohub,2013-08-10 15:57:00,
2013-08-10 11:02:00,73.9,54.7,30.11,NW,315,0.0,0.0,51,0.00,,,0.00,meteohub,2013-08-10 16:02:00,
2013-08-10 11:07:00,73.8,54.5,30.11,South,180,0.0,0.0,51,0.00,,,0.00,meteohub,2013-08-10 16:07:00,
2013-08-10 11:12:00,73.9,54.1,30.11,South,180,0.0,0.0,50,0.00,,,0.00,meteohub,2013-08-10 16:12:00,
2013-08-10 11:17:00,74.5,55.8,30.11,East,90,0.0,0.0,52,0.00,,,0.00,meteohub,2013-08-10 16:17:00,
2013-08-10 11:22:00,74.1,53.2,30.12,West,270,0.0,0.0,48,0.00,,,0.00,meteohub,2013-08-10 16:22:00,
2013-08-10 11:27:00,74.1,55.4,30.12,South,180,0.0,0.0,52,0.00,,,0.00,meteohub,2013-08-10 16:27:00,
2013-08-10 11:32:00,74.3,56.1,30.12,SW,225,0.0,0.0,53,0.00,,,0.00,meteohub,2013-08-10 16:32:00,
2013-08-10 11:37:00,74.8,56.5,30.11,West,270,0.0,0.0,53,0.00,,,0.00,meteohub,2013-08-10 16:37:00,
2013-08-10 11:42:00,75.0,56.1,30.11,NW,315,0.0,0.0,52,0.00,,,0.00,meteohub,2013-08-10 16:42:00,
2013-08-10 11:47:00,74.7,55.4,30.11,South,180,1.0,0.0,51,0.00,,,0.00,meteohub,2013-08-10 16:47:00,
2013-08-10 11:52:00,74.5,56.7,30.12,NW,315,0.0,1.0,54,0.00,,,0.00,meteohub,2013-08-10 16:52:00,
2013-08-10 11:57:00,74.1,55.9,30.11,SW,225,0.0,1.0,53,0.00,,,0.00,meteohub,2013-08-10 16:57:00,
2013-08-10 12:02:00,74.1,56.8,30.12,NW,315,0.0,1.0,55,0.00,,,0.00,meteohub,2013-08-10 17:02:00,
2013-08-10 12:07:00,73.9,55.8,30.12,South,180,0.0,0.0,53,0.00,,,0.00,meteohub,2013-08-10 17:07:00,
2013-08-10 12:12:00,74.1,56.5,30.12,South,180,0.0,0.0,54,0.00,,,0.00,meteohub,2013-08-10 17:12:00,
2013-08-10 12:17:00,74.5,55.2,30.11,SW,225,0.0,0.0,51,0.00,,,0.00,meteohub,2013-08-10 17:17:00,
2013-08-10 12:22:00,74.7,54.9,30.11,West,270,0.0,0.0,50,0.00,,,0.00,meteohub,2013-08-10 17:22:00,
2013-08-10 12:27:00,74.7,55.4,30.11,SW,225,0.0,0.0,51,0.00,,,0.00,meteohub,2013-08-10 17:27:00,
2013-08-10 12:32:00,75.4,56.5,30.11,SW,225,0.0,0.0,52,0.00,,,0.00,meteohub,2013-08-10 17:32:00,
2013-08-10 12:37:00,76.6,56.1,30.10,SW,225,0.0,0.0,49,0.00,,,0.00,meteohub,2013-08-10 17:37:00,
2013-08-10 12:42:00,76.8,55.0,30.10,NW,315,0.0,0.0,47,0.00,,,0.00,meteohub,2013-08-10 17:42:00,
2013-08-10 12:47:00,77.5,54.0,30.10,SW,225,0.0,0.0,44,0.00,,,0.00,meteohub,2013-08-10 17:47:00,
2013-08-10 12:52:00,77.0,53.4,30.10,NW,315,0.0,0.0,44,0.00,,,0.00,meteohub,2013-08-10 17:52:00,
2013-08-10 12:57:00,76.1,57.2,30.10,NE,45,0.0,0.0,52,0.00,,,0.00,meteohub,2013-08-10 17:57:00,
2013-08-10 13:02:00,73.2,58.1,30.11,East,90,0.0,0.0,59,0.00,,,0.00,meteohub,2013-08-10 18:02:00,
2013-08-10 13:07:00,72.1,58.5,30.11,East,90,0.0,1.0,62,0.00,,,0.00,meteohub,2013-08-10 18:07:00,
2013-08-10 13:12:00,72.0,58.6,30.11,East,90,0.0,1.0,63,0.00,,,0.00,meteohub,2013-08-10 18:12:00,
2013-08-10 13:17:00,73.0,59.7,30.10,East,90,0.0,1.0,63,0.00,,,0.00,meteohub,2013-08-10 18:17:00,
2013-08-10 13:22:00,74.8,60.1,30.10,East,90,0.0,1.0,60,0.00,,,0.00,meteohub,2013-08-10 18:22:00,
2013-08-10 13:27:00,76.3,59.9,30.09,East,90,0.0,1.0,57,0.00,,,0.00,meteohub,2013-08-10 18:27:00,
2013-08-10 13:32:00,75.0,59.7,30.10,East,90,0.0,1.0,59,0.00,,,0.00,meteohub,2013-08-10 18:32:00,
2013-08-10 13:37:00,74.1,58.8,30.10,East,90,0.0,1.0,59,0.00,,,0.00,meteohub,2013-08-10 18:37:00,
2013-08-10 13:42:00,73.9,59.7,30.10,East,90,0.0,0.0,61,0.00,,,0.00,meteohub,2013-08-10 18:42:00,
2013-08-10 13:47:00,73.8,59.0,30.11,NE,45,0.0,0.0,60,0.00,,,0.00,meteohub,2013-08-10 18:47:00,
2013-08-10 13:52:00,73.4,59.2,30.11,East,90,0.0,0.0,61,0.00,,,0.00,meteohub,2013-08-10 18:52:00,
2013-08-10 13:57:00,73.2,59.4,30.11,East,90,0.0,1.0,62,0.00,,,0.00,meteohub,2013-08-10 18:57:00,
2013-08-10 14:02:00,73.0,59.7,30.11,NE,45,1.0,1.0,63,0.00,,,0.00,meteohub,2013-08-10 19:02:00,
2013-08-10 14:07:00,72.9,60.4,30.11,NW,315,0.0,1.0,65,0.00,,,0.00,meteohub,2013-08-10 19:07:00,
2013-08-10 14:12:00,72.5,60.1,30.11,East,90,0.0,1.0,65,0.00,,,0.00,meteohub,2013-08-10 19:12:00,
2013-08-10 14:17:00,72.5,58.8,30.11,NE,45,0.0,1.0,62,0.00,,,0.00,meteohub,2013-08-10 19:17:00,
2013-08-10 14:22:00,73.9,60.1,30.11,NE,45,0.0,1.0,62,0.00,,,0.00,meteohub,2013-08-10 19:22:00,
2013-08-10 14:27:00,74.1,58.8,30.11,NE,45,0.0,1.0,59,0.00,,,0.00,meteohub,2013-08-10 19:27:00,
2013-08-10 14:32:00,73.6,58.3,30.11,North,0,0.0,1.0,59,0.00,,,0.00,meteohub,2013-08-10 19:32:00,
2013-08-10 14:37:00,72.7,57.9,30.12,East,90,0.0,1.0,60,0.00,,,0.00,meteohub,2013-08-10 19:37:00,
2013-08-10 14:42:00,72.3,58.1,30.11,NE,45,0.0,1.0,61,0.00,,,0.00,meteohub,2013-08-10 19:42:00,
2013-08-10 14:47:00,72.7,58.5,30.11,NE,45,0.0,1.0,61,0.00,,,0.00,meteohub,2013-08-10 19:47:00,
2013-08-10 14:52:00,73.2,59.0,30.11,North,0,0.0,1.0,61,0.00,,,0.00,meteohub,2013-08-10 19:52:00,
2013-08-10 14:57:00,72.9,58.1,30.11,NE,45,0.0,0.0,60,0.00,,,0.00,meteohub,2013-08-10 19:57:00,
2013-08-10 15:02:00,73.2,58.5,30.11,NE,45,0.0,1.0,60,0.00,,,0.00,meteohub,2013-08-10 20:02:00,
2013-08-10 15:12:00,72.9,57.7,30.10,East,90,0.0,0.0,59,0.00,,,0.00,meteohub,2013-08-10 20:12:00,
2013-08-10 15:17:00,72.9,58.1,30.10,NE,45,0.0,0.0,60,0.00,,,0.00,meteohub,2013-08-10 20:17:00,
2013-08-10 15:22:00,72.9,58.6,30.10,NE,45,0.0,0.0,61,0.00,,,0.00,meteohub,2013-08-10 20:22:00,
2013-08-10 15:27:00,73.0,58.8,30.10,East,90,0.0,0.0,61,0.00,,,0.00,meteohub,2013-08-10 20:27:00,
2013-08-10 15:32:00,73.0,58.3,30.09,NE,45,1.0,0.0,60,0.00,,,0.00,meteohub,2013-08-10 20:32:00,
2013-08-10 15:37:00,73.0,58.3,30.09,NE,45,0.0,1.0,60,0.00,,,0.00,meteohub,2013-08-10 20:37:00,
2013-08-10 15:42:00,72.9,58.1,30.09,East,90,0.0,1.0,60,0.00,,,0.00,meteohub,2013-08-10 20:42:00,
2013-08-10 15:47:00,72.9,58.1,30.09,NE,45,0.0,1.0,60,0.00,,,0.00,meteohub,2013-08-10 20:47:00,
2013-08-10 15:52:00,72.5,57.7,30.09,SW,225,0.0,0.0,60,0.00,,,0.00,meteohub,2013-08-10 20:52:00,
2013-08-10 15:57:00,72.1,57.6,30.10,North,0,0.0,0.0,60,0.00,,,0.00,meteohub,2013-08-10 20:57:00,
2013-08-10 16:02:00,71.6,57.0,30.09,East,90,0.0,1.0,60,0.00,,,0.00,meteohub,2013-08-10 21:02:00,
2013-08-10 16:07:00,71.4,57.7,30.09,NE,45,0.0,1.0,62,0.00,,,0.00,meteohub,2013-08-10 21:07:00,
2013-08-10 16:12:00,71.2,57.6,30.10,NE,45,0.0,1.0,62,0.00,,,0.00,meteohub,2013-08-10 21:12:00,
2013-08-10 16:17:00,70.9,56.3,30.09,East,90,0.0,1.0,60,0.00,,,0.00,meteohub,2013-08-10 21:17:00,
2013-08-10 16:22:00,70.7,56.7,30.09,NE,45,0.0,1.0,61,0.00,,,0.00,meteohub,2013-08-10 21:22:00,
2013-08-10 16:27:00,70.5,56.5,30.09,East,90,0.0,1.0,61,0.00,,,0.00,meteohub,2013-08-10 21:27:00,
2013-08-10 16:32:00,70.5,56.5,30.09,NE,45,4.0,0.0,61,0.00,,,0.00,meteohub,2013-08-10 21:32:00,
2013-08-10 16:37:00,70.5,56.5,30.09,NE,45,4.0,5.0,61,0.00,,,0.00,meteohub,2013-08-10 21:37:00,
2013-08-10 16:42:00,70.7,56.1,30.09,East,90,4.0,5.0,60,0.00,,,0.00,meteohub,2013-08-10 21:42:00,
2013-08-10 16:47:00,71.1,56.5,30.09,East,90,0.0,5.0,60,0.00,,,0.00,meteohub,2013-08-10 21:47:00,
2013-08-10 16:52:00,71.4,56.8,30.09,NE,45,3.0,5.0,60,0.00,,,0.00,meteohub,2013-08-10 21:52:00,
2013-08-10 16:57:00,71.6,56.1,30.09,East,90,5.0,5.0,58,0.00,,,0.00,meteohub,2013-08-10 21:57:00,
2013-08-10 17:02:00,71.6,56.1,30.09,East,90,6.0,6.0,58,0.00,,,0.00,meteohub,2013-08-10 22:02:00,
2013-08-10 17:07:00,71.4,56.3,30.09,East,90,5.0,6.0,59,0.00,,,0.00,meteohub,2013-08-10 22:07:00,
2013-08-10 17:12:00,71.2,56.7,30.09,NE,45,5.0,6.0,60,0.00,,,0.00,meteohub,2013-08-10 22:12:00,
2013-08-10 17:17:00,71.2,56.7,30.09,East,90,5.0,6.0,60,0.00,,,0.00,meteohub,2013-08-10 22:17:00,
2013-08-10 17:22:00,71.2,57.0,30.09,East,90,5.0,5.0,61,0.00,,,0.00,meteohub,2013-08-10 22:22:00,
2013-08-10 17:27:00,71.2,56.7,30.09,East,90,4.0,5.0,60,0.00,,,0.00,meteohub,2013-08-10 22:27:00,
2013-08-10 17:32:00,71.1,56.8,30.09,NW,315,3.0,5.0,61,0.00,,,0.00,meteohub,2013-08-10 22:32:00,
2013-08-10 17:37:00,71.2,57.0,30.09,East,90,2.0,5.0,61,0.00,,,0.00,meteohub,2013-08-10 22:37:00,
2013-08-10 17:42:00,71.1,56.8,30.09,NE,45,4.0,5.0,61,0.00,,,0.00,meteohub,2013-08-10 22:42:00,
2013-08-10 17:47:00,71.1,56.8,30.09,North,0,0.0,4.0,61,0.00,,,0.00,meteohub,2013-08-10 22:47:00,
2013-08-10 17:52:00,71.1,57.4,30.09,East,90,3.0,4.0,62,0.00,,,0.00,meteohub,2013-08-10 22:52:00,
2013-08-10 17:57:00,71.4,57.7,30.09,NE,45,3.0,4.0,62,0.00,,,0.00,meteohub,2013-08-10 22:57:00,
2013-08-10 18:02:00,71.6,57.4,30.09,East,90,3.0,4.0,61,0.00,,,0.00,meteohub,2013-08-10 23:02:00,
2013-08-10 18:07:00,71.6,56.5,30.09,NE,45,1.0,4.0,59,0.00,,,0.00,meteohub,2013-08-10 23:07:00,
2013-08-10 18:12:00,71.4,57.2,30.09,North,0,0.0,5.0,61,0.00,,,0.00,meteohub,2013-08-10 23:12:00,
2013-08-10 18:17:00,71.4,57.2,30.09,East,90,3.0,5.0,61,0.00,,,0.00,meteohub,2013-08-10 23:17:00,
2013-08-10 18:22:00,71.4,56.8,30.09,East,90,3.0,4.0,60,0.00,,,0.00,meteohub,2013-08-10 23:22:00,
2013-08-10 18:27:00,71.4,56.8,30.09,East,90,2.0,4.0,60,0.00,,,0.00,meteohub,2013-08-10 23:27:00,
2013-08-10 18:32:00,71.4,57.2,30.08,East,90,0.0,4.0,61,0.00,,,0.00,meteohub,2013-08-10 23:32:00,
2013-08-10 18:37:00,71.4,56.8,30.08,East,90,0.0,3.0,60,0.00,,,0.00,meteohub,2013-08-10 23:37:00,
2013-08-10 18:42:00,71.2,56.7,30.08,East,90,0.0,3.0,60,0.00,,,0.00,meteohub,2013-08-10 23:42:00,
2013-08-10 18:47:00,71.1,57.4,30.09,SW,225,0.0,2.0,62,0.00,,,0.00,meteohub,2013-08-10 23:47:00,
2013-08-10 18:52:00,70.7,57.0,30.08,SW,225,0.0,0.0,62,0.00,,,0.00,meteohub,2013-08-10 23:52:00,
2013-08-10 18:57:00,70.3,57.2,30.09,SW,225,0.0,0.0,63,0.00,,,0.00,meteohub,2013-08-10 23:57:00,
2013-08-10 19:02:00,70.3,57.2,30.09,East,90,0.0,0.0,63,0.00,,,0.00,meteohub,2013-08-11 00:02:00,
2013-08-10 19:07:00,70.2,57.4,30.08,East,90,0.0,0.0,64,0.00,,,0.00,meteohub,2013-08-11 00:07:00,
2013-08-10 19:17:00,70.0,57.2,30.09,East,90,0.0,0.0,64,0.00,,,0.00,meteohub,2013-08-11 00:17:00,
2013-08-10 19:22:00,69.6,57.7,30.08,East,90,0.0,0.0,66,0.00,,,0.00,meteohub,2013-08-11 00:22:00,
2013-08-10 19:27:00,69.4,57.9,30.08,East,90,0.0,0.0,67,0.00,,,0.00,meteohub,2013-08-11 00:27:00,
2013-08-10 19:32:00,69.1,57.7,30.08,East,90,0.0,0.0,67,0.00,,,0.00,meteohub,2013-08-11 00:32:00,
2013-08-10 19:37:00,68.9,57.6,30.08,East,90,0.0,0.0,67,0.00,,,0.00,meteohub,2013-08-11 00:37:00,
2013-08-10 19:42:00,68.5,57.2,30.09,East,90,0.0,0.0,67,0.00,,,0.00,meteohub,2013-08-11 00:42:00,
2013-08-10 19:47:00,68.2,57.2,30.09,East,90,0.0,0.0,68,0.00,,,0.00,meteohub,2013-08-11 00:47:00,
2013-08-10 19:52:00,67.6,57.6,30.09,East,90,0.0,0.0,70,0.00,,,0.00,meteohub,2013-08-11 00:52:00,
2013-08-10 19:57:00,67.3,57.6,30.09,East,90,0.0,0.0,71,0.00,,,0.00,meteohub,2013-08-11 00:57:00,
2013-08-10 20:02:00,66.9,57.6,30.09,East,90,0.0,0.0,72,0.00,,,0.00,meteohub,2013-08-11 01:02:00,
2013-08-10 20:07:00,66.4,57.0,30.09,East,90,0.0,0.0,72,0.00,,,0.00,meteohub,2013-08-11 01:07:00,
2013-08-10 20:12:00,66.0,57.2,30.09,East,90,0.0,0.0,73,0.00,,,0.00,meteohub,2013-08-11 01:12:00,
2013-08-10 20:17:00,65.8,57.4,30.09,East,90,0.0,0.0,74,0.00,,,0.00,meteohub,2013-08-11 01:17:00,
2013-08-10 20:22:00,65.5,57.0,30.10,East,90,0.0,0.0,74,0.00,,,0.00,meteohub,2013-08-11 01:22:00,
2013-08-10 20:27:00,65.1,57.0,30.10,East,90,0.0,0.0,75,0.00,,,0.00,meteohub,2013-08-11 01:27:00,
2013-08-10 20:32:00,64.6,56.5,30.10,East,90,0.0,0.0,75,0.00,,,0.00,meteohub,2013-08-11 01:32:00,
2013-08-10 20:37:00,64.2,56.8,30.10,East,90,0.0,0.0,77,0.00,,,0.00,meteohub,2013-08-11 01:37:00,
2013-08-10 20:42:00,63.7,56.7,30.11,East,90,0.0,0.0,78,0.00,,,0.00,meteohub,2013-08-11 01:42:00,
2013-08-10 20:47:00,63.3,56.3,30.11,East,90,0.0,0.0,78,0.00,,,0.00,meteohub,2013-08-11 01:47:00,
2013-08-10 20:52:00,63.0,56.3,30.11,West,270,0.0,0.0,79,0.00,,,0.00,meteohub,2013-08-11 01:52:00,
2013-08-10 20:57:00,62.6,56.3,30.12,West,270,0.0,0.0,80,0.00,,,0.00,meteohub,2013-08-11 01:57:00,
2013-08-10 21:02:00,62.4,57.2,30.12,South,180,0.0,0.0,83,0.00,,,0.00,meteohub,2013-08-11 02:02:00,
2013-08-10 21:07:00,62.1,57.2,30.12,South,180,0.0,0.0,84,0.00,,,0.00,meteohub,2013-08-11 02:07:00,
2013-08-10 21:12:00,61.9,57.0,30.12,South,180,0.0,0.0,84,0.00,,,0.00,meteohub,2013-08-11 02:12:00,
2013-08-10 21:17:00,61.7,56.8,30.12,South,180,0.0,0.0,84,0.00,,,0.00,meteohub,2013-08-11 02:17:00,
2013-08-10 21:22:00,61.3,56.5,30.12,NW,315,0.0,0.0,84,0.00,,,0.00,meteohub,2013-08-11 02:22:00,
2013-08-10 21:27:00,61.2,56.3,30.12,NW,315,0.0,0.0,84,0.00,,,0.00,meteohub,2013-08-11 02:27:00,
2013-08-10 21:32:00,61.0,56.5,30.12,NW,315,0.0,0.0,85,0.00,,,0.00,meteohub,2013-08-11 02:32:00,
2013-08-10 21:37:00,60.8,56.7,30.12,NW,315,0.0,0.0,86,0.00,,,0.00,meteohub,2013-08-11 02:37:00,
2013-08-10 21:42:00,60.6,57.0,30.12,NW,315,0.0,0.0,88,0.00,,,0.00,meteohub,2013-08-11 02:42:00,
2013-08-10 21:47:00,60.4,56.8,30.13,NW,315,0.0,0.0,88,0.00,,,0.00,meteohub,2013-08-11 02:47:00,
2013-08-10 21:52:00,60.1,56.8,30.13,NW,315,0.0,0.0,89,0.00,,,0.00,meteohub,2013-08-11 02:52:00,
2013-08-10 21:57:00,60.1,56.8,30.13,NW,315,0.0,0.0,89,0.00,,,0.00,meteohub,2013-08-11 02:57:00,
2013-08-10 22:07:00,59.7,56.8,30.12,NW,315,0.0,0.0,90,0.00,,,0.00,meteohub,2013-08-11 03:07:00,
2013-08-10 22:12:00,59.7,56.8,30.12,NW,315,0.0,0.0,90,0.00,,,0.00,meteohub,2013-08-11 03:12:00,
2013-08-10 22:22:00,59.4,56.7,30.12,NW,315,0.0,0.0,91,0.00,,,0.00,meteohub,2013-08-11 03:22:00,
2013-08-10 22:27:00,59.4,57.0,30.12,NW,315,0.0,0.0,92,0.00,,,0.00,meteohub,2013-08-11 03:27:00,
2013-08-10 22:37:00,58.8,56.8,30.13,NW,315,0.0,0.0,93,0.00,,,0.00,meteohub,2013-08-11 03:37:00,
2013-08-10 22:42:00,58.8,56.8,30.13,NW,315,0.0,0.0,93,0.00,,,0.00,meteohub,2013-08-11 03:42:00,
2013-08-10 22:47:00,58.6,56.8,30.13,NW,315,0.0,0.0,94,0.00,,,0.00,meteohub,2013-08-11 03:47:00,
2013-08-10 22:52:00,58.5,56.7,30.12,NW,315,0.0,0.0,94,0.00,,,0.00,meteohub,2013-08-11 03:52:00,
2013-08-10 22:57:00,58.5,56.7,30.12,NW,315,0.0,0.0,94,0.00,,,0.00,meteohub,2013-08-11 03:57:00,
2013-08-10 23:02:00,58.5,57.0,30.12,NW,315,0.0,0.0,95,0.00,,,0.00,meteohub,2013-08-11 04:02:00,
2013-08-10 23:07:00,58.3,56.8,30.12,NW,315,0.0,0.0,95,0.00,,,0.00,meteohub,2013-08-11 04:07:00,
2013-08-10 23:12:00,58.1,56.7,30.12,NW,315,0.0,0.0,95,0.00,,,0.00,meteohub,2013-08-11 04:12:00,
2013-08-10 23:17:00,58.1,57.0,30.12,NW,315,0.0,0.0,96,0.00,,,0.00,meteohub,2013-08-11 04:17:00,
2013-08-10 23:22:00,58.1,57.0,30.12,NW,315,0.0,0.0,96,0.00,,,0.00,meteohub,2013-08-11 04:22:00,
2013-08-10 23:27:00,57.9,56.8,30.12,NW,315,0.0,0.0,96,0.00,,,0.00,meteohub,2013-08-11 04:27:00,
2013-08-10 23:32:00,57.7,56.7,30.12,NW,315,0.0,0.0,96,0.00,,,0.00,meteohub,2013-08-11 04:32:00,
2013-08-10 23:37:00,57.6,56.7,30.12,NW,315,0.0,0.0,97,0.00,,,0.00,meteohub,2013-08-11 04:37:00,
2013-08-10 23:42:00,57.4,56.5,30.12,NW,315,0.0,0.0,97,0.00,,,0.00,meteohub,2013-08-11 04:42:00,
2013-08-10 23:47:00,57.4,56.5,30.12,NW,315,0.0,0.0,97,0.00,,,0.00,meteohub,2013-08-11 04:47:00,
2013-08-10 23:52:00,57.4,56.5,30.12,NW,315,0.0,0.0,97,0.00,,,0.00,meteohub,2013-08-11 04:52:00,
2013-08-10 23:57:00,57.2,56.3,30.12,NW,315,0.0,0.0,97,0.00,,,0.00,meteohub,2013-08-11 04:57:00,